THOR ABLESTAR DEB, 155

Orbit data source: Space-Track

THOR ABLESTAR DEB, 155 is space debris in LEO originally from a launch on Thu, 29 Jun 1961 UTC launched from the Air Force Eastern Test Range (AFETR). Debris objects in space refer to the collection of defunct objects orbiting the Earth. Examples of debris include non-operational satellites, rocket bodies, and fragments generated from explosions, collisions, or faulty payload assembly.

Loading next visibility...
THOR ABLESTAR DEB details
Identifier
155, 1961-015AR
Orbit
LEO
Last TLE update8 hours ago
Origin
Flag of USUSAF SSD (US)
ManufacturerUnknown
MissionSpacecraft
Bus & MotorUnknown
MassUnknown
Launch date (UTC)
1961-06-29 (64 years ago)
Launch vehicleUnknown
Launch site
Air Force Eastern Test Range (AFETR)
Object type
Payload
Rocket body
Debris
Shape & HBRUnknown
Radar Cross SectionSmall (<0.1 m²)

Expand to show TLE details & history

TLE from 8 hours ago
0 THOR ABLESTAR DEB
1 00155U 61015AR  25044.52402415  .00004941  00000-0  13181-2 0  9996
2 00155  66.8785 137.9358 0045332 279.0029  80.5951 14.48588260290235
Epoch: 2025-02-13T12:34Z
Definitive object data (Epoch: 2025-02-13T12:34:35.686Z)
Latitude-0.00001°
Longitude165.48819°
Altitude727.278 km
Speed7.495 km/s
True Right ascension09h 11m 44s
True Declination0° 00' 00"
Sunlit
Object was in full shadow at TLE epoch
Visualization TLE readout
Latitude-46.39575°
Longitude11.11127°
Altitude725.333 km
Speed7.503 km/s
Apparent Right ascension04h 04m 54s
Apparent Declination-89° 45' 31"
Sunlit
Object is in daylight
Visualization observer readout
Local Sidereal Time22:52:27
Azimuth179.692° S
Elevation-39.866°
Doppler factor1
Orbital elements
Apogee altitude760.819 km
Perigee altitude696.387 km
Semi-major axis7,106.74 km
Eccentricity0.0045332
Inclination66.8785°
RAAN137.9358°
Arg. of periapsis279.0029°
True anomaly81.10805°
Mean anomaly80.5951°
Eccentric anomaly80.85153°
Mean motion3.62274 °/min
BSTAR0.0013181
Orbital period99.37 mins
Loading maneuver chart data...

THOR ABLESTAR DEB Visibility forecast

Observer location: undefined°, undefined

Span
Click to sort rows by Start time (UTC) header in descending order
Start Az.
Max El. time (UTC)
Max El. Az.
Max El.
End time (UTC)
End Az.
8 mins2025-02-14 06:55:28.661Z168.285° S2025-02-14 06:59:28.661Z107.349° ESE28.061°2025-02-14 07:03:28.661Z50.648° ENE
7 mins2025-02-14 08:38:28.661Z255.666° W2025-02-14 08:41:28.661Z309.148° NW28.712°2025-02-14 08:45:28.661Z8.19° NNE
6 mins2025-02-14 15:38:28.661Z14.217° NNE2025-02-14 15:40:28.661Z44.587° NE21.323°2025-02-14 15:44:28.661Z98.135° ESE
8 mins2025-02-14 17:19:28.661Z316.205° NNW2025-02-14 17:23:28.661Z229.835° WSW37.803°2025-02-14 17:27:28.661Z173.057° S
|